EW5186 Weather Reports


Display with metric or nautical units.
time (UTC)temp
F
wind
direction
speed
MPH
gust
MPH
rain 1hr
in
rain 24hr
in
rain mn
in
humidity
%
barometer
mb
20260906200017 70 296 0.0 3.0 0.00 0.10 0.05 74 1016.5
20260906194516 70 255 1.0 5.0 0.00 0.10 0.05 73 1016.4
20260906193058 70 311 0.0 5.0 0.00 0.10 0.05 73 1016.5
20260906191558 72 278 0.0 4.0 0.00 0.10 0.05 75 1016.4
20260906190039 71 321 0.0 4.0 0.00 0.10 0.05 74 1016.4
20260906184537 71 110 1.0 4.0 0.00 0.10 0.05 76 1016.7
20260906183024 69 238 0.0 5.0 0.00 0.10 0.05 79 1016.8
20260906181522 69 174 0.0 5.0 0.00 0.10 0.05 79 1017.0
20260906180020 68 227 0.0 4.0 0.01 0.10 0.05 82 1016.9
20260906174517 67 100 0.0 3.0 0.02 0.10 0.05 85 1017.0
20260906173017 66 127 0.0 6.0 0.03 0.10 0.05 84 1017.0
20260906171517 65 220 0.0 2.0 0.03 0.10 0.05 89 1017.2
20260906170015 63 53 0.0 4.0 0.02 0.09 0.04 88 1017.2
20260906164514 63 97 0.0 5.0 0.01 0.08 0.03 87 1017.4
20260906163057 65 314 0.0 6.0 0.00 0.07 0.02 83 1017.2
20260906161602 66 94 0.0 3.0 0.00 0.07 0.02 82 1017.2
20260906160037 67 59 1.0 3.0 0.00 0.07 0.02 82 1017.1
20260906154543 65 75 0.0 3.0 0.00 0.07 0.02 84 1017.3
20260906153019 66 28 0.0 1.0 0.00 0.07 0.02 82 1017.4
20260906151517 66 70 0.0 3.0 0.00 0.07 0.02 83 1017.3
20260906150117 65 118 1.0 5.0 0.00 0.07 0.02 83 1017.2
20260906144556 65 139 0.0 5.0 0.00 0.07 0.02 85 1017.2
20260906143107 65 274 0.0 3.0 0.00 0.07 0.02 85 1017.2
20260906141534 65 307 0.0 4.0 0.00 0.07 0.02 87 1017.2
20260906140037 64 70 0.0 2.0 0.00 0.07 0.02 88 1017.2
20260906134516 64 271 0.0 4.0 0.00 0.07 0.02 88 1017.0
20260906133022 62 78 0.0 3.0 0.00 0.07 0.02 91 1017.0
20260906131601 62 286 0.0 2.0 0.00 0.07 0.02 92 1017.1
20260906130058 62 179 0.0 4.0 0.01 0.07 0.02 93 1017.0
20260906124535 61 263 0.0 2.0 0.02 0.07 0.02 93 1016.8
20260906123041 61 276 0.0 1.0 0.02 0.07 0.02 94 1016.7
20260906121516 60 272 0.0 2.0 0.02 0.07 0.02 94 1016.6
20260906120015 61 270 0.0 2.0 0.01 0.06 0.01 94 1016.5
20260906114609 60 285 0.0 1.0 0.00 0.05 0.00 94 1016.3
20260906113054 60 310 0.0 0.0 0.00 0.05 0.00 95 1016.1
20260906111546 59 124 0.0 0.0 0.00 0.05 0.00 95 1016.0
20260906110034 59 123 0.0 0.0 0.00 0.05 0.00 95 1015.7
20260906104534 59 135 0.0 0.0 0.00 0.05 0.00 95 1015.3
20260906103038 59 167 0.0 0.0 0.00 0.05 0.00 95 1015.1
20260906101516 58 292 0.0 0.0 0.00 0.05 0.00 95 1015.1
20260906100025 58 292 0.0 0.0 0.00 0.05 0.00 95 1014.9
20260906094513 58 292 0.0 1.0 0.00 0.05 0.00 95 1014.7
20260906093017 58 310 0.0 0.0 0.00 0.05 0.00 94 1014.7
20260906091519 59 310 0.0 0.0 0.00 0.05 0.00 94 1014.5
20260906090010 59 310 0.0 0.0 0.00 0.05 0.00 94 1014.4
20260906084506 59 310 0.0 0.0 0.00 0.05 0.00 94 1014.3
20260906083007 59 68 0.0 2.0 0.00 0.05 0.00 94 1014.7
20260906081547 60 41 0.0 1.0 0.00 0.05 0.00 95 1014.5
20260906080053 60 115 0.0 0.0 0.00 0.05 0.00 95 1014.1
20260906074526 61 87 0.0 1.0 0.00 0.05 0.00 95 1014.2
20260906073026 61 355 0.0 0.0 0.00 0.05 0.00 95 1014.2
20260906071505 62 355 0.0 0.0 0.00 0.05 0.00 95 1014.1
20260906070012 62 355 0.0 0.0 0.00 0.05 0.00 95 1014.1
20260906064546 62 355 0.0 0.0 0.00 0.05 0.00 95 1014.2
20260906063047 62 355 0.0 1.0 0.00 0.05 0.00 95 1014.3
20260906061527 62 355 0.0 0.0 0.00 0.05 0.00 95 1014.4
20260906060027 62 355 0.0 0.0 0.00 0.05 0.00 95 1014.4
20260906054508 62 355 0.0 1.0 0.00 0.05 0.00 95 1014.4
20260906053007 62 355 0.0 0.0 0.00 0.05 0.00 94 1014.3
20260906051548 63 355 0.0 1.0 0.00 0.05 0.00 94 1014.3
20260906050051 63 355 0.0 0.0 0.00 0.05 0.00 94 1014.4
20260906044530 63 355 0.0 0.0 0.00 0.05 0.00 94 1014.5
20260906043028 63 355 0.0 0.0 0.01 0.05 0.00 94 1014.4
20260906041508 63 94 0.0 1.0 0.02 0.05 0.00 94 1014.3
20260906040005 64 78 0.0 2.0 0.02 0.05 0.05 94 1014.2
20260906034554 65 194 0.0 0.0 0.02 0.05 0.05 95 1013.9
20260906033054 65 194 0.0 0.0 0.01 0.04 0.04 95 1013.8
20260906031609 64 194 0.0 0.0 0.00 0.03 0.03 95 1013.7
20260906030051 64 194 0.0 0.0 0.00 0.03 0.03 94 1013.7
20260906024600 65 194 0.0 0.0 0.00 0.03 0.03 94 1013.9
20260906023058 65 194 0.0 0.0 0.02 0.03 0.03 94 1013.8
20260906021548 65 194 0.0 0.0 0.02 0.03 0.03 93 1013.8
20260906020048 65 194 0.0 0.0 0.03 0.03 0.03 93 1013.7
20260906014529 65 194 0.0 0.0 0.03 0.03 0.03 92 1013.7
20260906013028 65 194 0.0 0.0 0.01 0.01 0.01 92 1013.6
20260906011509 66 194 0.0 0.0 0.01 0.01 0.01 90 1013.4
20260906010017 66 122 0.0 0.0 0.00 0.00 0.00 90 1013.3
20260906004549 65 121 0.0 1.0 0.00 0.00 0.00 90 1013.2
20260906003048 65 42 0.0 0.0 0.00 0.00 0.00 90 1013.1
20260906001534 66 41 0.0 1.0 0.00 0.00 0.00 88 1012.7
20260906000027 67 96 0.0 1.0 0.00 0.00 0.00 87 1012.7
20260905234507 67 99 0.0 1.0 0.00 0.00 0.00 85 1012.3
20260905233006 68 102 0.0 1.0 0.00 0.00 0.00 84 1012.4
20260905231549 68 21 0.0 0.0 0.00 0.00 0.00 84 1012.2
20260905230048 69 21 0.0 0.0 0.00 0.00 0.00 83 1012.2
20260905224531 70 21 0.0 0.0 0.00 0.00 0.00 81 1012.1
20260905223031 71 171 0.0 0.0 0.00 0.00 0.00 79 1012.2
20260905221510 72 113 0.0 1.0 0.00 0.00 0.00 76 1011.9
20260905220009 73 303 0.0 2.0 0.00 0.00 0.00 73 1011.8
20260905214558 73 347 0.0 1.0 0.00 0.00 0.00 74 1011.7
20260905213100 73 255 0.0 0.0 0.00 0.00 0.00 74 1011.5
20260905211607 73 260 0.0 1.0 0.00 0.00 0.00 75 1011.2
20260905204600 75 120 0.0 4.0 0.00 0.00 0.00 70 1010.9
20260905203059 76 336 0.0 1.0 0.00 0.00 0.00 70 1010.8
20260905201557 77 276 1.0 3.0 0.00 0.00 0.00 67 1010.9